Temperature
29 30 29 30 30 31 31 30 30 30 30 30 30 29 28 28 28 27 26 26 25 24 23 22 22 21 21 21 20 20 20 19 19 19 18 18 18 18 18 17 17 17 17 17
28 29 29 29 30 30 31 31 31 30 30 30 30 29 28 28 28 27 26 25 25 24 23 22 21 21 20 20 20 20 20 19 19 18 18 18 18 17 17 17 17 17 17 17
27 28 28 28 30 30 31 31 31 30 30 30 29 29 28 28 27 27 26 25 24 23 22 22 21 21 20 20 20 19 19 19 18 18 18 17 17 17 17 17 17 17 16 16
27 27 25 28 30 31 30 30 31 30 30 30 29 28 28 27 27 26 25 24 24 23 22 21 21 20 20 19 19 19 19 18 18 17 17 17 17 17 16 16 16 16 16 16
26 26 26 28 29 30 29 29 29 29 29 29 29 29 28 26 26 25 24 24 23 23 22 21 20 20 19 19 19 18 18 18 17 17 17 17 16 16 16 16 16 16 16 16
25 24 25 27 28 29 29 27 28 28 28 28 28 28 27 26 25 24 24 23 22 22 22 21 20 19 19 19 18 18 18 17 17 17 17 16 16 16 16 16 16 16 16 16
24 24 25 27 28 28 26 25 26 26 27 27 26 26 25 25 24 24 24 23 22 22 21 20 19 19 19 18 18 18 17 17 17 17 16 16 16 16 16 16 15 15 15 15
24 24 24 27 27 26 25 25 25 25 25 25 25 25 24 24 24 23 23 23 22 21 21 20 19 19 18 18 17 17 17 17 16 16 16 16 16 16 15 15 15 15 15 15
25 24 24 24 25 24 24 24 24 24 24 24 24 24 23 23 23 23 22 22 21 20 20 19 19 18 18 17 17 16 16 16 16 16 16 15 15 15 15 15 15 15 15 14
24 24 24 24 24 24 23 23 23 23 23 22 22 22 22 22 22 21 21 21 20 19 19 18 18 17 17 17 16 16 16 16 16 16 15 15 15 15 15 15 15 14 14 14
22 23 23 23 22 22 22 22 22 22 22 21 21 21 21 21 20 20 20 20 19 19 18 18 17 17 16 16 16 16 15 15 15 15 15 15 15 15 15 15 15 14 14 14
22 22 22 22 22 21 21 21 21 21 21 21 20 20 20 20 20 19 19 18 18 18 17 17 16 16 16 16 16 15 15 15 15 15 15 15 15 15 15 15 14 14 14 14
21 21 21 21 21 21 21 21 20 20 20 20 19 19 19 19 19 18 18 18 17 17 17 16 16 16 16 16 15 15 15 15 15 15 15 15 15 14 14 14 14 14 14 14
20 20 20 20 20 20 20 20 20 19 19 19 19 19 18 18 18 18 17 17 17 16 16 16 15 15 15 15 15 15 15 15 15 15 15 14 14 14 14 14 14 14 14 14
20 20 20 19 19 19 19 19 19 19 19 19 18 18 18 17 17 17 17 16 16 16 15 15 15 15 15 15 15 15 15 14 14 14 14 14 14 14 14 14 14 14 13 13
19 19 19 19 19 19 19 18 18 18 18 18 17 17 17 17 16 16 16 16 16 15 15 15 15 14 14 14 14 14 14 14 14 14 14 14 14 14 14 14 13 13 13 13
19 19 19 19 18 18 18 18 18 18 18 17 17 16 16 16 16 16 16 15 15 15 15 14 14 14 14 14 14 14 14 14 14 14 14 14 14 14 13 13 13 13 13 13
18 18 18 18 18 18 18 17 17 17 17 16 16 16 15 15 15 15 15 15 15 14 14 14 14 14 14 13 13 14 14 14 14 14 14 13 13 13 13 13 13 13 12 12
17 17 17 17 17 17 17 17 17 17 16 16 16 15 15 15 15 14 14 14 14 14 14 14 14 13 13 13 13 13 13 14 14 13 13 13 13 13 13 13 13 12 12 12
17 17 17 17 17 16 16 16 16 16 16 15 15 15 14 14 14 14 14 14 14 14 14 13 13 13 13 13 13 13 13 13 13 13 13 13 13 13 13 12 12 12 12 12
16 16 16 16 16 16 16 15 15 15 15 15 14 14 14 14 14 14 14 14 14 14 13 13 13 13 13 13 13 13 13 13 13 13 13 12 12 12 12 12 12 12 11 11
15 15 15 15 15 15 15 15 15 15 14 14 14 14 14 14 13 13 14 13 13 13 13 13 13 13 13 13 13 13 12 12 12 12 12 12 12 12 12 11 11 11 11 11
14 14 14 14 14 14 14 14 14 14 14 14 14 13 13 13 13 13 13 13 13 13 13 13 13 12 12 12 12 12 12 12 12 12 11 11 11 11 11 11 11 11 11 10
14 14 14 14 14 14 14 14 14 14 13 13 13 13 13 13 13 13 13 13 13 12 12 12 12 12 12 12 12 12 12 11 11 11 11 11 11 11 10 10 10 10 10 10
13 13 13 13 14 14 14 14 13 13 13 13 13 13 13 13 13 13 13 13 12 12 12 12 12 12 11 11 11 11 11 11 11 11 11 10 10 10 10 10 10 10 10 9
13 13 13 13 13 13 13 13 13 13 13 13 13 13 13 13 13 12 12 12 12 12 11 11 11 11 11 11 11 11 11 11 11 10 10 10 10 10 10 9 9 9 9 9
13 13 13 13 13 13 13 13 13 13 13 13 12 12 12 12 12 12 12 12 11 11 11 11 11 11 11 11 11 11 10 10 10 10 10 10 10 9 9 9 9 9 9 9
Wind_Speed
14 13 13 16 16 14 12 12 13 11 7 5 3 4 4 6 7 7 7 7 7 7 6 5 5 4 3 3 3 3 2 3 3 2 2 2 2 3 2 3 4 3 2 2
15 14 15 18 17 15 14 14 13 11 7 4 2 5 6 6 6 6 7 7 7 7 7 6 5 4 3 3 3 3 2 2 2 2 2 2 2 2 3 3 3 3 3 3
14 14 15 19 16 15 13 12 10 9 5 2 1 1 3 5 6 6 7 7 7 6 7 6 6 5 4 3 3 3 3 2 2 2 2 2 3 2 3 3 3 3 3 3
13 12 16 11 11 10 10 8 6 3 2 1 1 1 2 2 2 5 6 6 6 6 6 6 6 5 4 4 3 3 3 2 2 2 2 2 2 2 2 3 3 3 3 3
11 14 15 12 9 9 7 6 4 3 2 2 1 3 3 3 3 3 3 4 5 5 6 5 5 5 4 4 3 3 2 2 2 2 3 3 3 3 3 3 3 3 3 3
11 13 15 9 6 6 5 3 4 3 2 3 2 3 1 3 3 3 4 4 5 6 6 6 5 5 4 4 4 3 2 2 2 2 3 3 3 2 2 3 3 3 3 2
14 15 12 8 6 5 6 2 3 4 3 2 1 2 1 2 1 2 4 4 3 5 6 6 5 5 4 3 3 2 2 2 1 1 2 2 2 2 2 2 3 3 2 2
14 14 11 4 3 2 1 1 2 4 4 4 3 2 2 2 1 2 3 3 3 3 4 5 6 5 4 2 2 2 1 1 1 1 2 2 2 2 2 2 2 2 2 3
7 5 1 3 3 3 2 2 2 3 4 5 4 3 2 2 2 3 3 3 3 3 4 5 5 4 3 2 2 2 1 1 1 1 1 2 2 3 2 3 3 3 3 3
4 2 1 1 2 3 3 3 3 3 4 4 4 4 3 4 3 3 3 3 3 3 4 4 4 4 3 3 3 2 2 2 2 2 2 1 2 3 3 2 3 3 3 2
6 4 3 3 2 3 3 3 2 2 4 4 4 4 3 3 2 2 2 2 3 2 2 3 3 3 3 3 3 2 2 2 2 2 2 2 1 1 2 1 2 3 2 2
5 3 3 4 1 2 3 3 4 4 3 3 3 4 3 2 2 2 2 2 2 3 3 3 3 3 3 3 3 2 2 2 2 2 2 2 1 0 3 1 1 1 1 1
5 4 3 2 2 3 2 2 4 3 3 3 3 2 2 2 1 2 2 2 2 3 3 3 2 2 2 2 2 1 2 2 2 2 2 3 2 2 1 0 1 1 1 2
3 3 3 3 3 4 3 3 3 3 3 2 1 2 1 1 1 2 3 3 2 2 3 2 2 2 2 2 2 1 2 2 2 2 2 2 2 2 2 2 2 2 3 3
5 5 4 4 5 5 3 3 3 3 2 0 1 1 1 1 1 2 2 2 2 2 2 2 2 1 1 1 1 1 2 2 2 2 2 2 2 2 2 2 2 2 1 2
6 6 6 6 5 5 4 3 3 4 2 1 1 0 1 1 0 1 2 1 2 2 2 2 2 1 1 1 0 2 2 2 2 2 2 2 2 2 2 2 2 2 2 1
7 7 8 7 6 7 6 5 5 4 2 2 1 0 1 1 0 1 1 0 1 1 2 2 2 1 1 1 1 2 2 2 3 3 3 2 2 2 2 2 2 2 2 2
6 6 5 5 5 5 5 4 4 3 2 2 1 0 0 1 0 0 0 0 1 1 1 2 2 1 0 1 2 2 2 2 3 3 2 1 2 2 2 2 2 2 1 2
6 5 5 5 5 4 4 4 4 2 2 2 1 1 1 1 1 1 0 1 2 2 2 2 3 1 1 1 2 2 2 3 2 1 1 1 2 2 2 2 2 2 1 1
3 3 3 3 3 2 2 2 1 1 1 2 2 2 1 1 1 1 1 2 2 2 2 2 2 1 1 1 2 2 2 2 2 2 2 2 2 2 2 2 2 2 1 1
2 2 3 2 1 1 1 1 2 2 2 2 2 2 1 1 1 1 2 1 2 3 2 2 2 1 1 2 3 2 2 1 1 2 2 2 2 2 2 2 2 2 2 1
2 2 3 2 2 1 1 1 1 1 1 2 2 2 1 1 1 1 1 1 1 4 2 1 1 2 2 2 3 2 2 2 1 1 2 2 2 2 2 2 2 2 2 2
2 2 2 2 2 1 1 2 2 1 1 2 2 2 2 1 1 1 0 1 1 2 0 0 2 3 2 2 3 2 2 1 1 1 2 2 2 2 2 2 2 2 3 3
2 2 2 2 2 2 2 2 2 2 3 3 3 2 2 1 1 0 1 2 3 2 1 2 3 1 2 3 3 2 2 2 2 2 2 2 2 2 3 3 3 3 3 4
1 2 2 2 3 3 2 2 2 3 3 2 1 1 1 1 1 1 1 2 3 2 1 1 4 3 3 3 2 2 2 2 2 2 3 3 3 3 3 3 3 3 3 2
2 2 2 1 1 1 2 1 1 1 1 1 0 1 1 2 2 2 2 2 1 0 1 1 1 2 2 2 2 2 2 2 1 2 2 3 3 3 3 4 4 3 3 2
2 2 1 1 1 1 1 1 1 1 1 0 0 1 1 1 1 2 2 1 0 1 1 2 2 2 2 2 2 2 2 2 2 2 2 2 3 3 3 4 4 4 3 3
Wind_Direction
264 267 273 266 259 252 250 254 261 268 256 223 170 148 154 149 150 155 153 154 147 142 134 134 133 132 133 140 139 143 146 171 168 181 207 208 205 215 212 211 221 219 239 250
263 256 260 265 260 258 252 251 254 259 256 235 164 160 172 161 159 159 157 156 154 150 147 147 145 146 144 146 139 136 153 170 164 183 201 208 218 224 223 220 220 217 228 248
266 262 261 257 255 255 252 257 255 253 251 220 200 132 157 172 172 168 164 162 163 159 160 157 157 152 153 151 153 162 167 166 158 184 208 223 232 227 230 232 228 228 229 230
264 266 260 267 277 263 256 268 278 286 302 306 246 201 149 138 157 160 163 164 162 164 161 161 157 150 152 160 157 162 168 166 171 194 219 231 238 237 240 248 245 238 236 235
257 257 257 258 270 277 271 273 327 323 306 296 251 204 150 104 79 110 141 152 155 172 166 159 159 152 155 161 159 172 178 182 193 207 221 228 235 241 239 237 245 240 227 223
250 255 256 255 261 283 273 268 354 344 351 332 314 243 178 75 103 155 169 145 163 175 162 159 152 153 165 174 173 186 192 194 205 209 220 228 236 247 249 238 243 250 235 216
242 252 257 265 266 264 256 199 355 343 3 351 1 318 349 3 90 174 149 142 152 158 158 150 148 153 170 177 180 175 179 185 195 200 221 223 218 236 249 262 255 251 239 219
239 246 248 265 248 241 111 60 31 1 11 8 357 0 357 344 47 113 121 124 133 132 144 142 150 156 163 165 160 151 160 173 182 201 259 237 206 235 248 263 257 244 238 237
242 236 77 45 71 88 76 40 35 13 15 1 353 1 359 23 62 85 105 114 123 147 143 135 143 149 163 153 138 140 148 173 188 195 245 225 223 236 238 240 250 255 244 241
258 195 237 300 67 56 50 31 5 16 15 15 0 1 35 46 61 53 79 103 132 153 145 144 148 151 154 146 140 146 168 191 208 215 225 224 224 235 238 247 255 260 267 266
247 246 241 268 17 22 9 351 348 10 28 24 359 349 35 51 67 53 75 82 107 121 131 127 125 132 147 148 146 161 184 212 221 222 222 203 221 288 261 273 242 249 265 278
249 243 267 264 269 311 316 335 339 349 3 10 1 348 12 23 67 66 82 81 103 114 124 120 122 133 145 143 145 169 199 232 242 227 227 228 202 341 30 55 127 132 125 174
270 265 269 282 267 257 268 292 304 325 326 323 332 346 19 38 71 92 78 85 100 114 122 130 142 140 128 128 135 178 233 236 253 247 230 231 218 225 223 180 40 7 245 183
257 252 267 288 273 276 268 267 287 296 298 292 29 41 31 37 46 82 85 88 97 112 125 135 141 134 120 131 150 206 273 276 277 266 252 242 239 231 225 216 216 247 252 223
262 251 247 262 256 254 253 258 260 274 273 183 118 47 30 34 32 94 90 93 109 134 139 145 150 134 112 125 158 234 265 272 282 292 284 273 269 252 235 224 223 228 227 229
253 248 245 241 252 255 243 239 251 257 232 216 201 36 7 340 67 127 120 132 152 156 153 157 154 142 145 148 259 253 250 246 269 281 266 255 256 267 266 246 238 218 216 217
250 246 238 235 238 243 244 246 254 253 234 235 220 220 309 324 73 99 123 106 123 152 159 154 139 142 172 190 243 252 255 250 250 260 258 260 260 264 269 265 263 256 240 178
240 247 240 234 243 245 242 251 256 229 221 226 201 192 303 307 243 96 349 175 164 144 140 131 123 128 234 247 272 270 261 253 248 252 266 288 291 288 284 274 257 257 254 190
230 239 249 247 251 251 242 254 248 208 183 173 189 217 250 274 247 202 237 205 188 168 130 112 106 150 233 247 295 274 274 278 279 285 293 278 270 280 280 278 278 273 283 228
225 238 250 250 245 238 241 243 213 171 183 189 207 217 219 239 228 220 225 225 189 133 125 131 158 206 248 20 335 304 294 298 316 312 282 266 278 285 287 293 289 277 276 255
218 243 243 245 243 253 242 218 205 206 198 196 201 208 205 227 258 219 216 228 126 116 136 168 186 129 26 354 298 293 298 301 328 334 322 310 303 301 304 314 324 317 291 287
227 250 261 250 229 233 227 246 228 202 192 193 211 219 213 207 246 245 200 186 122 112 135 162 104 74 26 327 287 296 313 320 337 335 328 323 323 324 327 323 318 321 322 306
226 245 262 254 227 232 247 252 226 185 190 203 213 223 235 240 245 256 236 112 110 100 197 101 95 83 350 298 292 296 307 323 327 324 322 313 308 311 310 311 314 321 316 313
241 245 245 241 235 230 229 235 225 203 204 208 222 223 223 190 186 161 117 107 106 114 323 118 136 191 275 278 295 303 308 321 330 326 322 329 324 316 314 315 313 314 306 305
224 223 228 233 231 223 214 207 197 202 207 202 214 175 170 133 117 77 82 100 106 120 307 162 174 213 253 283 306 320 327 329 328 322 310 310 311 313 316 312 309 301 299 310
210 232 227 221 232 227 220 195 199 184 170 183 197 37 53 94 102 93 89 89 78 134 242 256 224 229 268 299 328 337 333 318 300 297 314 321 323 324 319 313 312 317 314 310
202 219 208 219 212 202 204 190 187 162 157 164 46 55 69 82 104 117 110 110 109 310 313 305 300 286 291 318 342 333 323 320 318 322 328 342 335 329 327 326 327 331 332 325
Height
1459 1456 1455 1457 1454 1451 1454 1457 1465 1462 1461 1459 1457 1462 1466 1469 1473 1476 1479 1482 1485 1488 1491 1493 1496 1498 1499 1501 1502 1503 1504 1505 1505 1506 1507 1508 1508 1509 1509 1509 1510 1511 1511 1511
1464 1456 1456 1456 1450 1450 1449 1450 1453 1454 1458 1454 1456 1461 1464 1467 1471 1474 1477 1480 1483 1486 1489 1492 1494 1496 1498 1499 1500 1501 1502 1503 1503 1504 1504 1505 1505 1506 1506 1507 1507 1507 1507 1508
1469 1458 1458 1462 1450 1447 1447 1444 1447 1454 1453 1452 1456 1460 1463 1465 1469 1473 1476 1479 1482 1485 1487 1489 1492 1493 1495 1497 1498 1500 1500 1501 1501 1501 1502 1502 1503 1503 1504 1504 1504 1504 1504 1504
1466 1468 1479 1456 1441 1439 1443 1443 1443 1446 1449 1451 1455 1460 1462 1465 1468 1471 1475 1477 1480 1483 1486 1488 1490 1492 1493 1495 1496 1497 1498 1499 1499 1499 1499 1500 1500 1500 1500 1501 1501 1501 1501 1501
1468 1471 1465 1451 1444 1441 1445 1449 1446 1448 1450 1452 1455 1458 1462 1466 1468 1471 1474 1477 1480 1482 1484 1486 1488 1489 1491 1493 1494 1495 1496 1496 1497 1497 1497 1497 1497 1497 1497 1497 1497 1497 1498 1498
1468 1474 1472 1455 1445 1443 1446 1456 1451 1452 1452 1454 1455 1459 1463 1465 1467 1471 1473 1475 1478 1479 1482 1484 1486 1487 1489 1490 1491 1492 1493 1494 1494 1494 1494 1494 1494 1495 1495 1494 1494 1495 1495 1495
1466 1469 1458 1448 1444 1445 1459 1462 1457 1455 1455 1456 1459 1462 1465 1465 1467 1469 1471 1474 1476 1478 1480 1481 1483 1485 1486 1488 1489 1490 1491 1491 1492 1492 1492 1492 1492 1492 1492 1492 1492 1491 1491 1491
1461 1466 1464 1447 1446 1451 1457 1457 1456 1458 1458 1459 1460 1462 1463 1465 1466 1467 1470 1472 1474 1476 1478 1479 1481 1482 1484 1485 1486 1487 1488 1488 1489 1489 1489 1490 1490 1489 1489 1489 1489 1489 1489 1488
1451 1456 1452 1450 1450 1453 1455 1458 1459 1460 1460 1461 1461 1462 1463 1464 1466 1467 1468 1470 1473 1475 1476 1478 1479 1480 1482 1483 1484 1484 1485 1485 1486 1486 1486 1487 1487 1487 1487 1487 1487 1487 1487 1486
1449 1449 1451 1451 1452 1454 1457 1459 1461 1461 1461 1462 1462 1463 1464 1464 1466 1467 1468 1469 1471 1473 1474 1476 1477 1478 1480 1481 1481 1482 1482 1483 1483 1484 1484 1484 1485 1485 1485 1485 1485 1485 1485 1484
1449 1450 1452 1453 1454 1455 1457 1459 1460 1461 1461 1462 1463 1464 1464 1465 1466 1467 1468 1469 1470 1472 1473 1475 1476 1477 1478 1479 1479 1480 1480 1481 1481 1482 1482 1482 1482 1483 1482 1482 1482 1482 1482 1482
1449 1450 1452 1453 1455 1456 1457 1458 1459 1460 1461 1462 1464 1464 1464 1465 1466 1467 1468 1469 1470 1471 1472 1473 1474 1475 1476 1477 1477 1478 1478 1479 1479 1479 1480 1480 1480 1480 1480 1480 1480 1479 1479 1479
1449 1450 1451 1452 1454 1456 1457 1458 1460 1460 1461 1461 1462 1464 1464 1464 1465 1466 1467 1468 1469 1470 1471 1472 1473 1474 1475 1475 1476 1477 1477 1477 1477 1477 1477 1478 1477 1477 1477 1477 1477 1477 1477 1477
1448 1450 1451 1452 1454 1455 1455 1456 1457 1458 1459 1460 1461 1462 1463 1463 1464 1465 1466 1467 1468 1469 1470 1471 1471 1472 1473 1473 1474 1475 1476 1476 1476 1475 1475 1475 1475 1475 1475 1474 1474 1473 1474 1474
1447 1449 1450 1452 1453 1454 1454 1455 1456 1456 1457 1459 1460 1461 1462 1462 1462 1463 1464 1466 1467 1468 1469 1469 1470 1471 1471 1472 1472 1473 1474 1474 1474 1474 1473 1473 1473 1473 1472 1472 1471 1471 1471 1471
1446 1447 1448 1450 1452 1452 1453 1454 1454 1455 1456 1458 1459 1460 1460 1460 1461 1462 1463 1464 1465 1466 1467 1468 1468 1469 1469 1470 1470 1471 1471 1471 1472 1472 1471 1471 1471 1470 1470 1469 1469 1469 1468 1468
1445 1446 1447 1449 1450 1451 1451 1452 1453 1453 1454 1456 1457 1458 1458 1459 1460 1461 1462 1463 1464 1464 1465 1466 1466 1467 1467 1468 1469 1469 1469 1469 1469 1469 1469 1469 1469 1468 1468 1468 1467 1467 1466 1466
1444 1444 1445 1447 1448 1448 1449 1450 1451 1452 1453 1455 1456 1456 1457 1458 1459 1460 1461 1462 1463 1463 1464 1464 1465 1465 1466 1466 1467 1467 1467 1467 1467 1467 1467 1467 1466 1466 1466 1466 1465 1465 1464 1464
1441 1442 1444 1445 1446 1447 1447 1448 1449 1450 1452 1453 1454 1455 1455 1457 1457 1458 1459 1460 1461 1461 1462 1463 1463 1463 1464 1465 1465 1466 1466 1466 1466 1465 1465 1464 1464 1464 1464 1463 1463 1462 1462 1461
1439 1441 1442 1443 1445 1446 1446 1447 1448 1449 1451 1452 1452 1453 1454 1456 1456 1457 1457 1459 1459 1459 1460 1461 1461 1462 1463 1463 1463 1464 1464 1464 1464 1463 1463 1462 1462 1462 1461 1461 1460 1460 1459 1459
1439 1440 1442 1443 1444 1445 1445 1446 1447 1448 1449 1450 1451 1452 1453 1454 1454 1455 1456 1457 1458 1458 1459 1460 1461 1461 1462 1462 1462 1462 1463 1463 1462 1461 1461 1460 1459 1459 1459 1458 1458 1457 1456 1456
1438 1439 1441 1442 1442 1443 1443 1444 1446 1446 1447 1448 1450 1451 1452 1452 1453 1454 1455 1456 1456 1457 1458 1459 1459 1459 1459 1460 1461 1461 1461 1461 1460 1459 1459 1458 1457 1456 1456 1455 1454 1454 1454 1453
1437 1438 1440 1440 1441 1441 1442 1443 1444 1445 1446 1447 1449 1450 1451 1451 1452 1452 1453 1454 1454 1455 1456 1457 1457 1457 1457 1458 1458 1459 1459 1459 1458 1458 1457 1456 1455 1454 1454 1453 1452 1452 1451 1450
1436 1437 1438 1439 1439 1440 1441 1442 1443 1444 1445 1447 1448 1449 1449 1450 1451 1451 1452 1452 1453 1454 1455 1456 1456 1456 1456 1456 1456 1457 1457 1456 1456 1455 1455 1454 1453 1452 1451 1450 1449 1448 1448 1447
1434 1435 1436 1437 1438 1439 1440 1441 1442 1443 1444 1445 1447 1448 1448 1449 1450 1450 1451 1451 1453 1453 1454 1454 1454 1455 1455 1455 1455 1454 1454 1454 1453 1453 1452 1452 1451 1450 1448 1447 1446 1445 1444 1443
1434 1434 1435 1436 1437 1438 1439 1440 1441 1443 1443 1444 1445 1446 1447 1448 1448 1449 1450 1450 1451 1452 1452 1453 1453 1454 1454 1454 1453 1453 1452 1452 1451 1451 1450 1449 1448 1447 1446 1444 1443 1442 1441 1439
1433 1434 1434 1435 1436 1437 1438 1439 1440 1442 1443 1444 1445 1446 1446 1447 1448 1448 1449 1450 1450 1451 1451 1452 1452 1453 1452 1452 1451 1451 1451 1450 1450 1449 1448 1446 1445 1444 1442 1441 1440 1438 1437 1436